893  
ASUS41 KALY 241610  
RWRALY  
 
NEW YORK STATE HOURLY WEATHER ROUNDUP  
NATIONAL WEATHER SERVICE ALBANY NY  
1200 PM EDT SUN JUN 24 2018  
 
NOTE: "FAIR" INDICATES FEW OR NO CLOUDS BELOW 12,000 FEET WITH NO  
SIGNIFICANT WEATHER AND/OR NO S TO VISIBILITY
.  
 
NYZ032-033-038>043-046>054-057>066-NYZ062>081-082-084-241700-  
EAST  
 
 
CITY SKY/WX TMP DP RH WIND PRES REMARKS
 
ALBANY CLOUDY 72 63 73 S8 29.81S  
GLENS FALLS CLOUDY 68 63 84 CALM 29.82R  
POUGHKEEPSIE PTSUNNY 79 66 64 SW8 29.80S  
NEWBURGH PTSUNNY 75 68 78 SW7 29.83S  
MONTGOMERY PTSUNNY 80 66 62 SW6 29.80F  
WHITE PLAINS FAIR 75 67 76 S6 29.84S  
ISLIP PTSUNNY 75 68 78 S8 29.84F  
NEW YORK CITY PTSUNNY 80 65 59 SW8 29.82F  
CENTRAL PARK FAIR 78 68 71 VRB5 29.85F  

 
 
NYZ005>009-017-018-044>046-055-056-241700-  
CENTRAL  
 
 
CITY SKY/WX TMP DP RH WIND PRES REMARKS
 
FULTON CLOUDY 68 60 75 NW5 29.83S  
SYRACUSE PTSUNNY 70 66 87 NE3 29.81F  
ROME CLOUDY 68 65 90 CALM 29.83F  
ELMIRA CLOUDY 74 67 78 N5 29.81F  
BINGHAMTON CLOUDY 71 63 75 VRB3 29.84F  
MONTICELLO CLOUDY 75 64 69 W9 29.86S  

 
 
NYZ026>034-041>043-087-241700-  
NORTH  
 
 
CITY SKY/WX TMP DP RH WIND PRES REMARKS
 
WATERTOWN CLOUDY 67 61 81 NE8 29.83R  
FORT DRUM NOT AVBL  
OGDENSBURG FAIR 68 60 75 CALM 29.84S  
MASSENA PTSUNNY 67 62 84 CALM 29.85R  
SARANAC LAKE CLOUDY 63 57 81 N5 29.84S  
PLATTSBURGH CLOUDY 67 60 78 CALM 29.82S  

 
 
NYZ001>004-010>016-019>021-085-241700-  
WEST  
 
 
CITY SKY/WX TMP DP RH WIND PRES REMARKS
 
NIAGARA FALLS LGT RAIN 65 61 87 N12 29.84R FOG  
BUFFALO LGT RAIN 66 65 96 NE6 29.82R  
DUNKIRK LGT RAIN 69 66 90 W12G21 29.84R FOG  
JAMESTOWN CLOUDY 69 63 81 W14 29.88R  
WELLSVILLE CLOUDY 71 66 84 SW9 29.88S  
ROCHESTER LGT RAIN 66 64 93 E7 29.84S  
PENN YAN HVY RAIN 66 65 96 CALM 29.84S FOG  

 
 
KEY  
WCI = WIND CHILL INDEX  
VSB = VISIBILITY  
HX = HEAT INDEX  

 
 
 
CLICK HERE TO GO TO PREVIOUS BULLETINS.

The Nexlab NY Page
The Nexlab VT Page
The Nexlab MA Page
The Nexlab CT Page Main Text Page